Dalzell, IL

2:17 PM CST on December 08, 2016 (GMT -0600)
Illinois Valley Regional-Duncan

Weather History for KVYS - June, 2012

Change the Weather History Date:

Friday, June 1, 2012

  Actual Average Record
Temperature  
Mean Temperature 57 °F -  
Max Temperature 65 °F 78 °F 93 °F (2002)
Min Temperature 48 °F 54 °F 39 °F (1993)
Degree Days  
Heating Degree Days 8    
Growing Degree Days 7 (Base 50)    
Moisture  
Dew Point 45 °F    
Average Humidity 67    
Maximum Humidity 89    
Minimum Humidity 38    
Precipitation  
Precipitation 0.00 in - - ()
Sea Level Pressure  
Sea Level Pressure 29.84 in    
Wind  
Wind Speed 13 mph (NW)    
Max Wind Speed 22 mph    
Max Gust Speed 28 mph    
Visibility 10 miles    
Events      
Averages and records for this station are not official NWS values.
T = Trace of Precipitation, MM = Missing Value Source: NWS Daily Summary

Daily Weather History Graph

Daily Weather History Graph

Search for Another Location

Airport or City:

Trip Planner

Search our weather history database for the weather conditions in past years. The results will help you decide how hot, cold, wet, or windy it might be!

Date:

Astronomy

Jun. 01, 2012 Rise Set
Actual Time 5:25 AM CDT 8:24 PM CDT
Civil Twilight 4:52 AM CDT 8:57 PM CDT
Nautical Twilight 4:10 AM CDT 9:39 PM CDT
Astronomical Twilight 3:21 AM CDT 10:28 PM CDT
Moon 5:24 PM CDT (6/1) 3:02 AM CDT (6/1)
Length of Visible Light 16h 04m
Length of Day
14h 58m
Waxing Gibbous, 89% of the Moon is Illuminated
Jun 1
Waxing Gibbous
Jun 4
Full
Jun 11
Last Quarter
Jun 19
New
Jun 26
First Quarter

Hourly Weather History & Observations

Time (CDT) Temp. Dew Point Humidity Pressure Visibility Wind Dir Wind Speed Gust Speed Precip Events Conditions
12:15 AM 49.1 °F 45.0 °F 86% 29.89 in 10.0 mi North 11.5 mph - N/A   Overcast
12:35 AM 49.1 °F 45.5 °F 87% 29.88 in 10.0 mi North 11.5 mph - N/A   Overcast
12:55 AM 49.1 °F 45.5 °F 87% 29.88 in 10.0 mi North 9.2 mph 17.3 mph N/A   Overcast
1:15 AM 49.1 °F 45.5 °F 87% 29.87 in 10.0 mi North 12.7 mph - N/A   Overcast
1:35 AM 49.1 °F 45.1 °F 86% 29.87 in 10.0 mi North 11.5 mph 16.1 mph N/A   Overcast
1:55 AM 48.7 °F 45.0 °F 87% 29.86 in 10.0 mi North 10.4 mph - N/A   Overcast
2:15 AM 48.9 °F 45.1 °F 87% 29.86 in 10.0 mi North 12.7 mph - N/A   Overcast
2:35 AM 49.1 °F 45.1 °F 86% 29.85 in 10.0 mi North 11.5 mph - N/A   Overcast
2:55 AM 49.1 °F 45.5 °F 87% 29.85 in 10.0 mi North 13.8 mph - N/A   Overcast
3:15 AM 49.1 °F 45.5 °F 87% 29.85 in 10.0 mi North 11.5 mph - N/A   Overcast
3:35 AM 49.1 °F 45.3 °F 87% 29.84 in 10.0 mi North 12.7 mph - N/A   Overcast
3:55 AM 50.0 °F 44.6 °F 82% 29.84 in 10.0 mi North 11.5 mph - N/A   Overcast
4:15 AM 49.3 °F 45.1 °F 86% 29.84 in 10.0 mi North 11.5 mph 16.1 mph N/A   Overcast
4:35 AM 49.3 °F 45.0 °F 85% 29.84 in 10.0 mi North 12.7 mph - N/A   Overcast
4:55 AM 49.5 °F 44.8 °F 84% 29.84 in 10.0 mi North 12.7 mph 19.6 mph N/A   Overcast
5:15 AM 49.6 °F 44.8 °F 83% 29.85 in 10.0 mi NNW 13.8 mph - N/A   Overcast
5:35 AM 49.3 °F 45.1 °F 86% 29.85 in 10.0 mi NNW 12.7 mph 18.4 mph N/A   Overcast
5:55 AM 49.6 °F 45.5 °F 86% 29.85 in 10.0 mi NNW 13.8 mph - N/A   Overcast
6:15 AM 49.3 °F 46.2 °F 89% 29.85 in 4.0 mi NNW 13.8 mph 19.6 mph N/A   Overcast
6:35 AM 49.3 °F 45.9 °F 88% 29.85 in 10.0 mi North 12.7 mph - N/A   Overcast
6:55 AM 50.0 °F 46.4 °F 87% 29.86 in 10.0 mi NNW 12.7 mph 18.4 mph N/A   Overcast
7:15 AM 50.4 °F 46.0 °F 85% 29.86 in 10.0 mi NNW 11.5 mph - N/A   Overcast
7:35 AM 50.9 °F 45.9 °F 83% 29.86 in 10.0 mi NNW 11.5 mph - N/A   Overcast
7:55 AM 51.8 °F 46.4 °F 82% 29.86 in 10.0 mi NNW 12.7 mph - N/A   Overcast
8:15 AM 51.8 °F 45.9 °F 80% 29.85 in 10.0 mi NNW 11.5 mph - N/A   Overcast
8:35 AM 52.5 °F 45.5 °F 77% 29.85 in 10.0 mi NNW 17.3 mph - N/A   Overcast
8:55 AM 54.1 °F 45.7 °F 73% 29.85 in 10.0 mi NNW 17.3 mph - N/A   Overcast
9:15 AM 55.0 °F 45.7 °F 71% 29.85 in 10.0 mi NW 16.1 mph - N/A   Overcast
9:35 AM 56.7 °F 46.0 °F 68% 29.85 in 10.0 mi NNW 15.0 mph 18.4 mph N/A   Overcast
9:55 AM 57.2 °F 46.4 °F 67% 29.85 in 10.0 mi NNW 13.8 mph - N/A   Mostly Cloudy
10:15 AM 58.6 °F 47.1 °F 66% 29.86 in 10.0 mi NNW 16.1 mph 21.9 mph N/A   Mostly Cloudy
10:35 AM 58.1 °F 47.3 °F 67% 29.86 in 10.0 mi NW 18.4 mph - N/A   Mostly Cloudy
10:55 AM 59.9 °F 45.5 °F 59% 29.85 in 10.0 mi NNW 17.3 mph 23.0 mph N/A   Mostly Cloudy
11:15 AM 60.1 °F 45.5 °F 59% 29.85 in 10.0 mi NW 18.4 mph 23.0 mph N/A   Mostly Cloudy
11:35 AM 60.4 °F 43.7 °F 54% 29.85 in 10.0 mi NNW 18.4 mph 26.5 mph N/A   Mostly Cloudy
11:55 AM 61.2 °F 43.7 °F 53% 29.85 in 10.0 mi NNW 18.4 mph 24.2 mph N/A   Mostly Cloudy
12:15 PM 60.4 °F 43.5 °F 54% 29.85 in 10.0 mi NNW 18.4 mph 23.0 mph N/A   Mostly Cloudy
12:35 PM 62.1 °F 45.3 °F 54% 29.85 in 10.0 mi NW 20.7 mph 24.2 mph N/A   Mostly Cloudy
12:55 PM 60.8 °F 44.2 °F 54% 29.85 in 10.0 mi NW 17.3 mph - N/A   Mostly Cloudy
1:15 PM 62.8 °F 45.1 °F 53% 29.85 in 10.0 mi WNW 21.9 mph - N/A   Mostly Cloudy
1:35 PM 61.0 °F 43.7 °F 53% 29.85 in 10.0 mi NNW 16.1 mph 27.6 mph N/A   Mostly Cloudy
1:55 PM 62.6 °F 43.9 °F 50% 29.84 in 10.0 mi NW 21.9 mph 26.5 mph N/A   Mostly Cloudy
2:15 PM 64.2 °F 45.3 °F 50% 29.83 in 10.0 mi NW 17.3 mph 24.2 mph N/A   Mostly Cloudy
2:35 PM 63.3 °F 45.5 °F 52% 29.83 in 10.0 mi WNW 16.1 mph 23.0 mph N/A   Scattered Clouds
2:55 PM 64.4 °F 44.6 °F 49% 29.83 in 10.0 mi WNW 15.0 mph 25.3 mph N/A   Scattered Clouds
3:15 PM 64.0 °F 44.8 °F 50% 29.82 in 10.0 mi NW 19.6 mph 24.2 mph N/A   Mostly Cloudy
3:35 PM 65.1 °F 43.7 °F 46% 29.82 in 10.0 mi NW 16.1 mph 25.3 mph N/A   Mostly Cloudy
3:55 PM 65.1 °F 43.5 °F 45% 29.82 in 10.0 mi NW 12.7 mph - N/A   Scattered Clouds
4:15 PM 64.4 °F 43.7 °F 47% 29.82 in 10.0 mi NNW 11.5 mph 18.4 mph N/A   Mostly Cloudy
4:35 PM 64.9 °F 44.2 °F 47% 29.82 in 10.0 mi NW 12.7 mph 17.3 mph N/A   Mostly Cloudy
4:55 PM 64.2 °F 44.2 °F 48% 29.83 in 10.0 mi NW 11.5 mph - N/A   Mostly Cloudy
5:15 PM 63.5 °F 44.1 °F 49% 29.83 in 10.0 mi NW 8.1 mph - N/A   Scattered Clouds
5:35 PM 64.2 °F 44.8 °F 49% 29.82 in 10.0 mi NW 9.2 mph - N/A   Clear
5:55 PM 66.2 °F 41.0 °F 40% 29.82 in 10.0 mi WNW 16.1 mph - N/A   Clear
6:15 PM 65.5 °F 39.0 °F 38% 29.82 in 10.0 mi WNW 15.0 mph - N/A   Clear
6:35 PM 65.1 °F 39.9 °F 40% 29.82 in 10.0 mi WNW 12.7 mph - N/A   Clear
6:55 PM 64.9 °F 41.2 °F 42% 29.82 in 10.0 mi NW 9.2 mph - N/A   Clear
7:15 PM 64.2 °F 42.3 °F 45% 29.82 in 10.0 mi WNW 9.2 mph - N/A   Clear
7:35 PM 63.0 °F 43.3 °F 49% 29.82 in 10.0 mi WNW 5.8 mph - N/A   Clear
7:55 PM 61.3 °F 44.2 °F 53% 29.82 in 10.0 mi WNW 3.5 mph - N/A   Clear
8:15 PM 59.9 °F 45.9 °F 60% 29.82 in 10.0 mi West 5.8 mph - N/A   Clear
8:35 PM 58.8 °F 45.7 °F 62% 29.82 in 10.0 mi West 5.8 mph - N/A   Clear
8:55 PM 57.9 °F 45.5 °F 63% 29.82 in 10.0 mi West 6.9 mph - N/A   Clear
9:15 PM 57.4 °F 44.8 °F 63% 29.82 in 10.0 mi WSW 5.8 mph - N/A   Clear
9:35 PM 57.4 °F 44.8 °F 63% 29.82 in 10.0 mi WSW 5.8 mph - N/A   Clear
9:55 PM 55.2 °F 45.5 °F 70% 29.82 in 10.0 mi WSW 5.8 mph - N/A   Clear
10:15 PM 54.7 °F 44.8 °F 69% 29.82 in 10.0 mi WSW 8.1 mph - N/A   Clear
10:35 PM 54.1 °F 45.1 °F 72% 29.82 in 10.0 mi WSW 8.1 mph - N/A   Clear
10:55 PM 53.6 °F 45.0 °F 73% 29.82 in 10.0 mi WSW 9.2 mph - N/A   Clear
11:15 PM 53.6 °F 45.5 °F 74% 29.82 in 10.0 mi WSW 9.2 mph - N/A   Clear
11:35 PM 53.2 °F 45.5 °F 75% 29.81 in 10.0 mi WSW 8.1 mph - N/A   Clear
11:55 PM 53.6 °F 45.1 °F 73% 29.81 in 10.0 mi WSW 8.1 mph - N/A   Clear